{"data":{"norad_id":54007,"intl_designator":"2022-125AV","name":"STARLINK-5132","alt_names":[],"object_type":"PAYLOAD","status":"ACTIVE","operator":null,"country":"US","launch_date":"2022-10-05","launch_site_code":"AFWTR","launch_vehicle":null,"mission":null,"orbit_class":"UNKNOWN","rcs_meters":null,"size_class":null,"mass_kg":null,"dimensions":null,"purposes":["comms"],"wikipedia_slug":null,"has_3d_model":false,"image_url":null,"decayed_at":null,"tle_current":{"epoch":"2026-09-20T22:32:35.566656Z","epoch_age_seconds":48327,"freshness":"FRESH","line1":"1 54007U 22125AV  26263.93930054  .00002130  00000+0  15187-3 0  9990","line2":"2 54007  53.1596  56.5906 0001323  92.9762 267.1381 15.08845997218940","mean_motion":15.08845997,"eccentricity":0.0001323,"inclination_deg":53.1596,"raan_deg":56.5906,"arg_perigee_deg":92.9762,"mean_anomaly_deg":267.1381,"bstar":0.00015187,"rev_number":21894,"period_min":95.437175355412,"perigee_km":538.8098254446,"apogee_km":540.64029174531,"semimajor_km":6917.862058595,"source":"CELESTRAK","updated_at":"2026-09-21T09:00:33.073759Z"}}}